Location: Tauranga
(37.6860°S, 176.1670°E)
Time: 08:55:14
(UTC+13:00)

Cosmos 1733 Rocket - Pass Details

Date: 24 January 2019
Orbit: 604 x 627 km, 82.5° (Epoch: 16 February)

Event Time Altitude Azimuth Distance (km) Brightness Sun altitude
Rises 22:52:06 0° 175° (S) 2,923 7.2 -22.4°
Reaches altitude 10° 22:54:39 10° 162° (SSE) 2,004 6.1 -22.7°
Enters shadow 22:57:44 26° 120° (ESE) 1,240 4.5 -23.1°
